When you browse on this site, cookies collect data to enhance your experience and personalize the content and advertising you see.
Visit our Privacy Policy to learn more. By continuing to use the site, you agree to this use of cookies and data.
  • In United Kingdom
  • List of Countries
  • For 7 days
  • Water Temperature
  • Weather Map
  • Weather Widgets
  • user-avatar
    Login

    Hourly Weather Kerewan

    Today, 3 June, Wednesday

    Time Temperature Precipitation Wind Pressure Humidity
    00:00 +27°C° 0 mm 3 mps 759 mmHg 51%
    01:00 +27°C° 0 mm 3 mps 758 mmHg 53%
    02:00 +26°C° 0 mm 2 mps 758 mmHg 56%
    03:00 +26°C° 0 mm 2 mps 758 mmHg 56%
    04:00 +25°C° 0 mm 2 mps 758 mmHg 56%
    05:00 +25°C° 0 mm 2 mps 758 mmHg 56%
    06:00 +27°C° 0 mm 3 mps 758 mmHg 50%
    07:00 +28°C° 0 mm 3 mps 758 mmHg 44%
    08:00 +30°C° 0 mm 4 mps 759 mmHg 38%
    09:00 +34°C° 0 mm 4 mps 759 mmHg 32%
    10:00 +37°C° 0 mm 4 mps 759 mmHg 26%
    11:00 +41°C° 0 mm 5 mps 759 mmHg 19%
    12:00 +42°C° 0 mm 5 mps 758 mmHg 18%
    13:00 +43°C° 0 mm 5 mps 757 mmHg 17%
    14:00 +45°C° 0 mm 5 mps 756 mmHg 16%
    15:00 +43°C° 0 mm 5 mps 756 mmHg 20%
    16:00 +41°C° 0 mm 6 mps 755 mmHg 24%
    17:00 +39°C° 0 mm 6 mps 755 mmHg 28%
    18:00 +36°C° 0 mm 6 mps 756 mmHg 29%
    19:00 +35°C° 0 mm 6 mps 756 mmHg 31%
    20:00 +33°C° 0 mm 6 mps 756 mmHg 33%
    21:00 +32°C° 0 mm 6 mps 757 mmHg 35%
    22:00 +29°C° 0 mm 6 mps 757 mmHg 38%
    23:00 +28°C° 0 mm 5 mps 757 mmHg 40%

    Tomorrow, 4 June, Thursday

    Time Temperature Precipitation Wind Pressure Humidity
    00:00 +28°C° 0 mm 5 mps 757 mmHg 42%
    01:00 +27°C° 0 mm 4 mps 757 mmHg 43%
    02:00 +26°C° 0 mm 3 mps 756 mmHg 45%
    03:00 +26°C° 0 mm 3 mps 757 mmHg 47%
    04:00 +25°C° 0 mm 2 mps 757 mmHg 50%
    05:00 +25°C° 0 mm 2 mps 757 mmHg 52%
    06:00 +27°C° 0 mm 2 mps 757 mmHg 47%
    07:00 +29°C° 0 mm 3 mps 757 mmHg 42%
    08:00 +32°C° 0 mm 4 mps 758 mmHg 37%
    09:00 +35°C° 0 mm 4 mps 758 mmHg 31%
    10:00 +39°C° 0 mm 5 mps 758 mmHg 25%
    11:00 +42°C° 0 mm 5 mps 757 mmHg 19%
    12:00 +42°C° 0 mm 6 mps 757 mmHg 19%
    13:00 +44°C° 0 mm 6 mps 756 mmHg 19%
    14:00 +44°C° 0 mm 6 mps 756 mmHg 18%
    15:00 +42°C° 0 mm 6 mps 755 mmHg 21%
    16:00 +41°C° 0 mm 5 mps 755 mmHg 23%
    17:00 +40°C° 0 mm 4 mps 755 mmHg 25%
    18:00 +37°C° 0 mm 5 mps 755 mmHg 29%
    19:00 +34°C° 0 mm 5 mps 756 mmHg 34%
    20:00 +32°C° 0 mm 5 mps 756 mmHg 38%
    21:00 +30°C° 0 mm 5 mps 757 mmHg 41%
    22:00 +29°C° 0 mm 4 mps 757 mmHg 44%
    23:00 +27°C° 0 mm 4 mps 757 mmHg 47%

    Day after tomorrow, 5 June, Friday

    Time Temperature Precipitation Wind Pressure Humidity
    00:00 +27°C° 0 mm 3 mps 757 mmHg 50%
    01:00 +26°C° 0 mm 2 mps 757 mmHg 54%
    02:00 +25°C° 0 mm 1 mps 756 mmHg 57%
    03:00 +25°C° 0 mm 2 mps 756 mmHg 59%
    04:00 +25°C° 0 mm 2 mps 757 mmHg 60%
    05:00 +24°C° 0 mm 2 mps 757 mmHg 62%
    06:00 +26°C° 0 mm 2 mps 757 mmHg 55%
    07:00 +28°C° 0 mm 3 mps 757 mmHg 48%
    08:00 +30°C° 0 mm 3 mps 758 mmHg 41%
    09:00 +34°C° 0 mm 4 mps 758 mmHg 34%
    10:00 +37°C° 0 mm 4 mps 758 mmHg 27%
    11:00 +41°C° 0 mm 4 mps 757 mmHg 21%
    12:00 +42°C° 0 mm 4 mps 757 mmHg 20%
    13:00 +43°C° 0 mm 4 mps 756 mmHg 20%
    14:00 +44°C° 0 mm 4 mps 755 mmHg 19%
    15:00 +42°C° 0 mm 5 mps 755 mmHg 25%
    16:00 +39°C° 0 mm 6 mps 755 mmHg 31%
    17:00 +36°C° 0 mm 6 mps 754 mmHg 37%
    18:00 +35°C° 0 mm 6 mps 755 mmHg 39%
    19:00 +34°C° 0 mm 6 mps 755 mmHg 40%
    20:00 +33°C° 0 mm 5 mps 756 mmHg 42%
    21:00 +30°C° 0 mm 4 mps 756 mmHg 45%
    22:00 +29°C° 0 mm 3 mps 756 mmHg 48%
    23:00 +28°C° 0 mm 1 mps 757 mmHg 51%

    6 June, Saturday

    Time Temperature Precipitation Wind Pressure Humidity
    00:00 +27°C° 0 mm 1 mps 757 mmHg 53%
    01:00 +27°C° 0 mm 1 mps 757 mmHg 54%
    02:00 +26°C° 0 mm 1 mps 757 mmHg 55%
    03:00 +26°C° 0 mm 1 mps 757 mmHg 55%
    04:00 +26°C° 0 mm 1 mps 757 mmHg 55%
    05:00 +26°C° 0 mm 1 mps 758 mmHg 55%
    06:00 +28°C° 0 mm 1 mps 758 mmHg 50%
    07:00 +29°C° 0 mm 1 mps 758 mmHg 45%
    08:00 +30°C° 0 mm 1 mps 758 mmHg 40%
    09:00 +32°C° 0 mm 2 mps 758 mmHg 36%
    10:00 +36°C° 0 mm 2 mps 758 mmHg 31%
    11:00 +38°C° 0 mm 3 mps 758 mmHg 27%
    12:00 +39°C° 0 mm 2 mps 757 mmHg 25%
    13:00 +40°C° 0 mm 2 mps 757 mmHg 23%
    14:00 +42°C° 0 mm 1 mps 756 mmHg 21%
    15:00 +40°C° 0 mm 3 mps 755 mmHg 27%
    16:00 +38°C° 0 mm 4 mps 755 mmHg 32%
    17:00 +37°C° 0 mm 5 mps 755 mmHg 37%
    18:00 +34°C° 0 mm 5 mps 756 mmHg 47%
    19:00 +32°C° 0 mm 5 mps 756 mmHg 57%
    20:00 +28°C° 0 mm 5 mps 757 mmHg 67%
    21:00 +28°C° 0 mm 4 mps 757 mmHg 70%
    22:00 +27°C° 0 mm 4 mps 758 mmHg 73%
    23:00 +27°C° 0 mm 3 mps 758 mmHg 75%

    7 June, Sunday

    Time Temperature Precipitation Wind Pressure Humidity
    00:00 +26°C° 0 mm 3 mps 758 mmHg 76%
    01:00 +26°C° 0 mm 3 mps 758 mmHg 78%
    02:00 +26°C° 0 mm 3 mps 758 mmHg 79%
    03:00 +26°C° 0 mm 3 mps 758 mmHg 79%
    04:00 +26°C° 0 mm 2 mps 758 mmHg 80%
    05:00 +26°C° 0 mm 2 mps 758 mmHg 81%
    06:00 +27°C° 0 mm 2 mps 758 mmHg 73%
    07:00 +28°C° 0 mm 3 mps 758 mmHg 65%
    08:00 +29°C° 0 mm 3 mps 759 mmHg 57%
    09:00 +33°C° 0 mm 3 mps 759 mmHg 49%
    10:00 +35°C° 0 mm 3 mps 759 mmHg 42%
    11:00 +37°C° 0 mm 3 mps 758 mmHg 34%
    12:00 +38°C° 0 mm 3 mps 758 mmHg 32%
    13:00 +40°C° 0 mm 3 mps 757 mmHg 30%
    14:00 +42°C° 0 mm 4 mps 756 mmHg 28%
    15:00 +40°C° 0 mm 5 mps 756 mmHg 34%
    16:00 +37°C° 0 mm 5 mps 756 mmHg 41%
    17:00 +35°C° 0 mm 6 mps 755 mmHg 47%
    18:00 +33°C° 0 mm 6 mps 756 mmHg 56%
    19:00 +29°C° 0 mm 5 mps 757 mmHg 66%
    20:00 +27°C° 0 mm 5 mps 757 mmHg 75%
    21:00 +27°C° 0 mm 4 mps 758 mmHg 76%
    22:00 +27°C° 0 mm 3 mps 758 mmHg 77%
    23:00 +26°C° 0 mm 2 mps 759 mmHg 79%

    8 June, Monday

    Time Temperature Precipitation Wind Pressure Humidity
    00:00 +26°C° 0 mm 2 mps 758 mmHg 81%
    01:00 +26°C° 0 mm 2 mps 758 mmHg 83%
    02:00 +26°C° 0 mm 2 mps 758 mmHg 85%
    03:00 +26°C° 0 mm 2 mps 758 mmHg 86%
    04:00 +25°C° 0 mm 2 mps 758 mmHg 87%
    05:00 +25°C° 0 mm 2 mps 758 mmHg 87%
    06:00 +27°C° 0 mm 2 mps 758 mmHg 80%
    07:00 +28°C° 0 mm 2 mps 758 mmHg 72%
    08:00 +29°C° 0 mm 2 mps 758 mmHg 64%
    09:00 +33°C° 0 mm 3 mps 758 mmHg 55%
    10:00 +35°C° 0 mm 4 mps 758 mmHg 45%
    11:00 +38°C° 0 mm 4 mps 758 mmHg 36%
    12:00 +38°C° 0 mm 4 mps 757 mmHg 36%
    13:00 +38°C° 0 mm 4 mps 756 mmHg 36%
    14:00 +38°C° 0 mm 4 mps 756 mmHg 36%
    15:00 +37°C° 0 mm 5 mps 756 mmHg 40%
    16:00 +35°C° 0 mm 5 mps 755 mmHg 44%
    17:00 +34°C° 0 mm 5 mps 755 mmHg 48%
    18:00 +32°C° 0 mm 5 mps 755 mmHg 55%
    19:00 +29°C° 0 mm 5 mps 756 mmHg 63%
    20:00 +28°C° 0 mm 4 mps 757 mmHg 70%
    21:00 +27°C° 0 mm 4 mps 757 mmHg 73%
    22:00 +27°C° 0 mm 4 mps 757 mmHg 76%
    23:00 +27°C° 0 mm 3 mps 758 mmHg 79%
    Show more